Flag for San Marino Weather past 2 weeks in San Marino, San Marino

Now
46 °F

Partly sunny.


Feels Like: 42 °F
Forecast: 27 / 35 °F
Wind: 9 mph from East

Location: Rimini Airport

Current Time: Jan 25, 2015 at 5:28:11 PM

Latest Report: Jan 25, 2015 at 4:45 PM


Visibility: N/A

Pressure: 30.04 "Hg

Humidity: 62%

Dew point: 34 °F

Location of San MarinoLocation

Historic Weather in San Marino — Graph

°F

San Marino temperature yesterday

Maximum temperature yesterday: 50 °F (at 2:45 PM)
Minimum temperature yesterday: 43 °F (at 5:15 AM)
Average temperature yesterday: 46 °F

Past Weeks' High & Low Weather Summary

 TemperatureHumidityPressure
High63 °F (Jan 11, 2:45 PM)100% (Jan 10, 5:15 PM)30.39 "Hg (Jan 10, 5:15 PM)
Low32 °F (Jan 12, 5:15 AM)27% (Jan 12, 3:15 PM)29.71 "Hg (Jan 23, 3:45 AM)
Average45 °F87%30.00 "Hg
* Reported Jan 10 3:15 PM — Jan 25 3:45 PM, San Marino, Weather by CustomWeather, © 2014

Note: Actual official high and low records may vary slightly from our data, if they occured in-between our weather recording intervals... More about our weather records

Advertising

San Marino weather history for previous 24 hours

 ConditionsComfort  
Time TempWeatherWind HumidityBarometerVisibility
3:45 PM
Jan 25
46 °FBroken clouds.10 mph62%30.04 "HgN/A
3:15 PM46 °FBroken clouds.10 mph66%30.04 "HgN/A
2:45 PM46 °FBroken clouds.12 mph62%30.01 "HgN/A
2:15 PM46 °FBroken clouds.12 mph62%30.01 "HgN/A
1:45 PM46 °FBroken clouds.12 mph62%30.01 "HgN/A
1:15 PM46 °FBroken clouds.14 mph62%30.01 "HgN/A
12:45 PM46 °FBroken clouds.13 mph62%30.01 "HgN/A
12:15 PM46 °FBroken clouds.13 mph62%30.01 "HgN/A
11:45 AM46 °FBroken clouds.14 mph62%30.01 "HgN/A
11:15 AM46 °FBroken clouds.16 mph62%30.01 "HgN/A
10:45 AM46 °FBroken clouds.18 mph62%30.01 "HgN/A
10:15 AM46 °FBroken clouds.14 mph66%29.98 "HgN/A
9:45 AM46 °FBroken clouds.15 mph66%29.98 "HgN/A
9:15 AM46 °FPartly sunny.16 mph66%29.98 "HgN/A
8:45 AM46 °FPartly sunny.17 mph66%29.95 "HgN/A
8:15 AM46 °FBroken clouds.15 mph66%29.95 "HgN/A
7:45 AM46 °FBroken clouds.15 mph66%29.92 "HgN/A
7:15 AM46 °FPassing clouds.16 mph66%29.92 "HgN/A
6:45 AM46 °FPassing clouds.13 mph71%29.92 "HgN/A
6:15 AM46 °FPassing clouds.14 mph66%29.89 "HgN/A
5:45 AM46 °FPassing clouds.16 mph66%29.89 "HgN/A
5:15 AM46 °FPassing clouds.15 mph66%29.89 "HgN/A
4:45 AM46 °FPassing clouds.15 mph66%29.86 "HgN/A
4:15 AM46 °FPassing clouds.14 mph66%29.86 "HgN/A
3:45 AM46 °FPassing clouds.8 mph71%29.86 "HgN/A
3:15 AM46 °FPassing clouds.7 mph71%29.86 "HgN/A
2:45 AM46 °FPassing clouds.6 mph66%29.86 "HgN/A
2:15 AM46 °FPassing clouds.5 mph66%29.86 "HgN/A
1:45 AM46 °FPassing clouds.12 mph71%29.86 "HgN/A
1:15 AM46 °FPassing clouds.7 mph76%29.86 "HgN/A
12:15 AM46 °FPassing clouds.5 mph76%29.83 "HgN/A
11:45 PM
Jan 24
46 °FPassing clouds.5 mph82%29.83 "HgN/A
11:15 PM46 °FPassing clouds.5 mph82%29.83 "HgN/A
10:45 PM46 °FPassing clouds.5 mph82%29.83 "HgN/A
10:15 PM46 °FPassing clouds.8 mph82%29.83 "HgN/A
9:45 PM46 °FPassing clouds.7 mph87%29.83 "HgN/A
9:15 PM46 °FPassing clouds.7 mph87%29.83 "HgN/A
8:45 PM46 °FPassing clouds.No wind87%29.80 "HgN/A
8:15 PM48 °FPassing clouds.2 mph76%29.80 "HgN/A
7:45 PM48 °FPassing clouds.3 mph76%29.80 "HgN/A
7:15 PM48 °FPassing clouds.5 mph76%29.80 "HgN/A
6:45 PM48 °FPassing clouds.7 mph82%29.80 "HgN/A
6:15 PM48 °FClear.7 mph76%29.80 "Hg10 mi
5:45 PM48 °FClear.7 mph76%29.80 "Hg10 mi
5:15 PM48 °FClear.8 mph76%29.80 "Hg10 mi
Weather by CustomWeather, © 2014

See weather overviewHow to use our weather pages